Regional Weather Roundup
Issued by NWS

Home | Current Version | Previous Version | Graphics & Text | Print | Product List | Glossary On
Versions: 1 2 3 4 5 6 7 8 9 10 11 12 13 14 15 16 17 18 19 20 21 22 23 24 25 26 27 28 29 30 31 32 33 34 35 36 37 38 39 40 41 42 43 44 45 46 47 48 49 50
276
ASUS43 KOAX 242002
RWRNE

WEATHER ROUNDUP FOR NEBRASKA
NATIONAL WEATHER SERVICE OMAHA NE
200 PM CST TUE JAN 24 2017

NOTES: SATELLITE DATA IS BEING USED TO AUGMENT CLOUD COVER ABOVE
       12000 FEET.
       "FAIR" INDICATES FEW OR NO CLOUDS BELOW 12,000 FEET WITH NO
       SIGNIFICANT WEATHER AND/OR OBSTRUCTIONS TO VISIBILITY.

  * THESE STATIONS DO NOT REPORT WEATHER SUCH AS RAIN...SNOW OR FOG.

NEZ001>004-019>022-054>056-242100-
NEBRASKA PANHANDLE

CITY           SKY/WX    TMP DP  RH WIND       PRES   REMARKS
SCOTTSBLUFF    LGT SNOW  23  16  74 N18       29.68F WCI   9
ALLIANCE       FOG       20  16  84 N24       29.63F VSB 1/2 WCI   3
CHADRON        SNOW      22  18  85 N20       29.74F VSB 1/2 WCI   7
KIMBALL        CLOUDY    21  18  88 N20G26    29.61S FOG     WCI   6
SIDNEY         CLOUDY    22  17  81 N28G35    29.59F WCI   4
$$

NEZ057>060-069>072-079>082-242100-
SOUTHWEST NEBRASKA

CITY           SKY/WX    TMP DP  RH WIND       PRES   REMARKS
NORTH PLATTE   LGT SNOW  33  28  81 N14       29.51F WCI  23
IMPERIAL       CLOUDY    29  24  82 N30G36    29.54S WCI  13
LEXINGTON      CLOUDY    32  29  89 N8        29.50F WCI  25
MCCOOK         CLOUDY    33  30  88 N13       29.49F WCI  24
OGALLALA       CLOUDY    30  24  79 N28G33    29.56F WCI  15
$$

NEZ005>010-023>029-035>040-094-242100-
NORTH CENTRAL NEBRASKA

CITY           SKY/WX    TMP DP  RH WIND       PRES   REMARKS
VALENTINE      SNOW      28  25  88 N14       29.62F VSB 1/2 WCI  17
AINSWORTH      LGT SNOW  28  28 100 N9        29.58F VSB 3/4 WCI  19
BROKEN BOW     HVY SNOW  31  30  96 NE10      29.50F VSB 1/4 WCI  22
O`NEILL        LGT SNOW  30  29  96 NE16      29.56F WCI  19
ORD            SNOW      31  29  92 E3        29.52S VSB 1/4
THEDFORD       SNOW      29  28  96 N10       29.55F VSB 1/4 WCI  19
$$

NEZ041-046>049-061>064-073>077-083>087-242100-
SOUTH CENTRAL NEBRASKA

CITY           SKY/WX    TMP DP  RH WIND       PRES   REMARKS
GRAND ISLAND   CLOUDY    30  28  92 E13       29.50R FOG     WCI  20
AURORA         CLOUDY    31  31  98 E13G20    29.48S WCI  21
HASTINGS       CLOUDY    31  30  96 E8        29.49S FOG     WCI  23
HEBRON         CLOUDY    35  32  90 E12       29.44F FOG     WCI  26
HOLDREGE       CLOUDY    32  30  93 NE8       29.47S WCI  24
KEARNEY *      CLOUDY    30  28  93 NE9       29.48F VSB 1   WCI  22
YORK           CLOUDY    32  32 100 E14G20    29.48S WCI  22
$$

NEZ011>018-030>034-042>045-242100-
NORTHEAST NEBRASKA

CITY           SKY/WX    TMP DP  RH WIND       PRES   REMARKS
NORFOLK        LGT SNOW  30  28  92 NE16G25   29.53F FOG     WCI  19
ALBION         LGT SNOW  32  30  91 E15G25    29.50F WCI  22
BLAIR          CLOUDY    33  30  90 NE17      29.52F WCI  22
FREMONT        CLOUDY    32  31  96 NE20G28   29.50F WCI  20
TEKAMAH        CLOUDY    34  29  82 NE13      29.58F WCI  25
WAYNE          CLOUDY    32  31  96 E17       29.59S FOG     WCI  21
$$

NEZ050>053-065>068-078-088>093-242100-
SOUTHEAST NEBRASKA

CITY           SKY/WX    TMP DP  RH WIND       PRES   REMARKS
LINCOLN        CLOUDY    35  29  78 E15       29.50F WCI  25
OMAHA EPPLEY   CLOUDY    35  28  75 E10       29.56F WCI  27
BEATRICE       CLOUDY    36  32  88 E14G22    29.45F FOG     WCI  27
FALLS CITY     CLOUDY    40  34  79 SE25G33   29.46F WCI  29
NEBRASKA CITY  CLOUDY    37  29  75 SE16      29.50S WCI  27
PLATTSMOUTH    CLOUDY    35  28  78 E14       29.52S WCI  25
$$

NEZ044-045-051>053-067-242100-
OMAHA AREA

CITY           SKY/WX    TMP DP  RH WIND       PRES   REMARKS
OMAHA EPPLEY   CLOUDY    35  28  75 E10       29.56F WCI  27
BLAIR          CLOUDY    33  30  90 NE17      29.52F WCI  22
FREMONT        CLOUDY    32  31  96 NE20G28   29.50F WCI  20
MILLARD        CLOUDY    37  31  80 E9G20     29.53F WCI  30
OFFUTT AFB     CLOUDY    37  34  89 E10       29.53F WCI  29
PLATTSMOUTH    CLOUDY    35  28  78 E14       29.52S WCI  25
WAHOO          CLOUDY    33  30  88 E13       29.51F WCI  24
$$




USA.gov is the U.S. government's official web portal to all federal, state and local government web resources and services.